Regional Weather Roundup
Issued by NWS

Home | Current Version | Previous Version | Text Only | Print | Product List | Glossary Off
Versions: 1 2 3 4 5 6 7 8 9 10 11 12 13 14 15 16 17 18 19 20 21 22 23 24 25 26 27 28 29 30 31 32 33 34 35 36 37 38 39 40 41 42 43 44 45 46 47 48 49 50

000
ASUS43 KDTX 010810
RWRMI
MICHIGAN HOURLY REGIONAL WEATHER ROUNDUP
NATIONAL WEATHER SERVICE DETROIT/PONTIAC MI
400 AM EDT WED JUL 01 2015

NOTE: "FAIR" INDICATES FEW OR NO CLOUDS BELOW 12,000 FEET WITH NO
SIGNIFICANT WEATHER AND/OR OBSTRUCTION TO VISIBILITY.

MIZ047>049-052>055-059>063-066>070-074>076-081>083-010900-
SOUTHEAST LOWER MICHIGAN

CITY           SKY/WX    TMP DP  RH WIND       PRES   REMARKS
ADRIAN         CLOUDY    62  60  93 NW6       29.84R
ALMA           CLOUDY    57  56  97 NW8       29.86R
ANN ARBOR      CLOUDY    64  61  90 NW8       29.82R
BAD AXE        CLOUDY    58  55  90 CALM      29.82R
CARO           CLOUDY    58  57  96 CALM      29.82R
DETROIT CITY   CLOUDY    63  59  87 N5        29.80S
DETROIT        CLOUDY    64  61  90 W6        29.81S
FLINT          CLOUDY    63  60  90 NW6       29.83R FOG
GROSSE ILE     CLOUDY    64  61  88 W6        29.80R FOG
HILLSDALE      CLOUDY    60  60 100 W6        29.85S FOG
HOWELL         CLOUDY    62  61  97 NW5       29.83R FOG

CITY           SKY/WX    TMP DP  RH WIND       PRES   REMARKS
JACKSON        CLOUDY    62  59  90 NW6       29.84R
LAMBERTVILLE   CLOUDY    62  59  90 NW3       29.83R FOG
LANSING        CLOUDY    61  59  93 W8        29.85R
LAPEER         MOCLDY    57  56  95 CALM      29.82R FOG
MASON          CLOUDY    60  59  97 W7        29.84R
MONROE         PTCLDY    62  61  97 W7        29.81R FOG
MT. CLEMENS    CLOUDY    61  61 100 N3        29.79R FOG
PONTIAC        LGT RAIN  63  61  93 N3        29.80R
PORT HOPE        N/A     59  57  93 W6        29.79S
PORT HURON     MOCLDY    57  55  94 CALM      29.80R FOG
TRI CITIES     CLOUDY    60  57  89 NW7       29.84R
MIDLAND        CLOUDY    57  55  93 NW7       29.83S
TROY           DRIZZLE   63  62  96 CALM      29.83R
SAGINAW HB     CLOUDY    61  61 100 NW9       29.82R
$$
MIZ043>046-050>051-056>058-064>065-071>073-077>080-010900-
SOUTHWEST LOWER MICHIGAN

CITY           SKY/WX    TMP DP  RH WIND       PRES   REMARKS
BATTLE CREEK   CLOUDY    60  57  89 NW5       29.86S
BENTON HARBOR  PTCLDY    58  55  90 NW5       29.89S
BIG RAPIDS     CLOUDY    52  49  89 NW6       29.87S
COLDWATER      CLOUDY    58  57  97 NW5       29.86S FOG
FREMONT        CLOUDY    53  51  95 N7        29.87F
HOLLAND        CLOUDY    56  53  90 NW3       29.89R
GRAND RAPIDS   CLOUDY    58  55  90 N8        29.86S
IONIA          CLOUDY    59  58  94 NW8       29.85R
KALAMAZOO      CLOUDY    57  54  89 NW9       29.87S
LUDINGTON      CLOUDY    53  49  88 NE7       29.90S
MARSHALL       CLOUDY    61  58  92 CALM      29.85S
MOUNT PLEASANT CLOUDY    54  53  94 NW5       29.85S
MUSKEGON       MOCLDY    54  50  86 N7        29.88F
SOUTH HAVEN    MOCLDY    57  54  89 N6        29.89S
$$
MIZ016>042-010900-
NORTHERN LOWER MICHIGAN

CITY           SKY/WX    TMP DP  RH WIND       PRES   REMARKS
ALPENA         CLOUDY    60  58  92 NW5       29.82S
BEAVER ISLAND  CLOUDY    50  49  96 N5        29.88S FOG
BELLAIRE       CLOUDY    52  49  89 CALM      29.88S
CADILLAC       CLOUDY    51  49  92 NW6       29.87S
CHARLEVOIX     CLOUDY    52  51  96 CALM      29.90S FOG
FRANKFORT      CLOUDY    53  45  74 N6        29.90S
GAYLORD        CLOUDY    51  51 100 W6        29.86S FOG
GRAYLING       CLOUDY    51  50  96 W7        29.87S
HARBOR SPRINGS CLOUDY    53  51  94 CALM      29.86S
HOUGHTON LAKE  CLOUDY    51  51 100 NW8       29.87S
MANISTEE       CLOUDY    50  45  81 N6        29.90F
OSCODA         CLOUDY    60  59  95 CALM      29.81R
PELLSTON       CLOUDY    54  52  93 NW7       29.86R
ROGERS CITY    CLOUDY    59  58  97 W6        29.84S FOG
TRAVERSE CITY  CLOUDY    51  48  89 W7        29.88S
$$
MIZ007>008-015-010900-
EASTERN UPPER MICHIGAN

CITY           SKY/WX    TMP DP  RH WIND       PRES   REMARKS
KINROSS        CLOUDY    52  52 100 NW8       29.85S
MACKINAC ISLAN CLOUDY    53  53 100 N7        29.85R
NEWBERRY       CLOUDY    46  46  98 N5        29.88S
S. S. MARIE    CLOUDY    52  50  93 NW6       29.85S
MUNISING         N/A     48  45  89 NW15      29.93S
$$
MIZ004>006-011>014-085-010900-
CENTRAL UPPER MICHIGAN

CITY           SKY/WX    TMP DP  RH WIND       PRES   REMARKS
MANISTIQUE     CLOUDY    46  44  93 N10       29.88F
ESCANABA       CLOUDY   N/A N/A N/A N10       29.91S
MENOMINEE      CLOUDY    48  43  81 N7        29.93R
SAWYER-GWINN   CLOUDY    45  42  89 N13       29.94S
$$
MIZ001>003-009>011-084-010900-
WESTERN UPPER MICHIGAN

CITY           SKY/WX    TMP DP  RH WIND       PRES   REMARKS
IRON MOUNTAIN  CLEAR     44  40  85 NW6       29.94R
HOUGHTON       CLEAR     43  38  82 N9        29.98S
COPPER HARBOR    N/A     46  42  86 N7        29.98S
IRONWOOD       CLEAR     39  39 100 CALM      29.98S
$$

ABBREVIATIONS USED IN REMARKS
   TC - TEMPERATURE IN CELSIUS
  WCI - WIND CHILL INDEX
   HX - HEAT INDEX
  VSB - VISIBILITY




USA.gov is the U.S. government's official web portal to all federal, state and local government web resources and services.